User: anonymous   Login
Location: ?????????
(53.2086°N, 54.0693°E)
Time: 08:52:38
(UTC+00:00)
Language:

SMAP - Orbit

View from above orbital plane
View from above orbital plane
View from above satellite
View from above satellite

Ground track
Ground track

The orbit data is extracted from the following two-line orbital elements,

1 40376U 15003A   20055.88367449 +.00000042 +00000-0 +17239-4 0  9992
2 40376 098.1242 064.0802 0001357 051.9551 308.1770 14.63372103270612
Epoch (UTC): 24 February 2020 21:12:29
Eccentricity: 0.0001357
inclination: 98.1242°
perigee height: 681 km
apogee height: 683 km
right ascension of ascending node: 64.0802°
argument of perigee: 51.9551°
revolutions per day: 14.63372103
mean anomaly at epoch: 308.1770°
orbit number at epoch: 27061

The dashed part of the orbit path shows where the satellite is in the earth's shadow,  

DLR